Location: Montreal
(45.5000°N, 73.5833°W)
Time: 01:16:55
(UTC-04:00)

Vanguard 1 Rocket - Visible Passes

Search period start: 18 July 2018 00:00
Search period end: 28 July 2018 00:00
Orbit: 652 x 4225 km, 34.3° (Epoch: 16 July)

Date Brightness Start Highest point End Pass type
(mag) Time Alt. Az. Time Alt. Az. Time Alt. Az.
22 Jul 11.9 04:27:29 10° SSE 04:35:56 13° SE 04:43:43 10° ESE visible
24 Jul 11.7 04:23:48 10° SSE 04:38:00 18° SE 04:50:35 10° E visible
26 Jul 11.6 04:22:31 10° S 04:40:00 24° SE 04:55:23 10° E visible
27 Jul 11.7 03:16:01 10° SSE 03:27:05 15° SE 03:37:46 10° ESE visible
